SL-16 R/B

Satellite information

Favourite Embed

Satellite Type and Status

ROCKET BODYIN ORBIT

Key statistics

Satellite SL-16 R/B at a glance.

Uptime

10638

Days in orbit

Revolutions

≈ 14.1

Per day

Orbit

LEO

Low Earth Orbit

Inclination

70.8

Latest

Satellite identification and parameters

Extended collection of information and parameters for SL-16 R/B.

Object identification

Identified? True

Debris? False

Object name: SL-16 R/B

International designator: 1996-051B

Object number (NORAD): 24298

Object ID (CCSDS): 24298

Country: COMMONWEALTH OF INDEPENDENT STATES (CIS)

Current information (Y/N): Y

RCS size: LARGE

Orbital parameters

Period: 101.955 minutes

Inclination: 70.7575 deg

SMA: 7229.33 km

Apoapsis: 863.092 km

Periapsis: 839.298 km

RAAN: 113.1402 deg

Eccentricy: 0.00164566

Argument of periapsis: 331.5013 deg

Mean anomaly: 28.5205 deg

Mean motion: 14.12393291 rev/day

Mean motion (dot): -0.00000071 rev/day2

B* drag term: -0.000011614457 1/REarth

Two-line elements (TLE)

Creation date: Oct. 20, 2025, 2:10 a.m.

Reference frame: TEME

Reference center: EARTH

Epoch: Oct. 19, 2025, 10:43 p.m. UTC

TLE line 0: 0 SL-16 R/B

TLE line 1: 1 24298U 96051B 25292.94699718 -.00000071 00000-0 -11614-4 0 9996

TLE line 2: 2 24298 70.7575 113.1402 0016457 331.5013 28.5205 14.12393291501776

Live tracking on map

Real-time ground track for satellite SL-16 R/B.

In-orbit conjunctions

A list of the most updated potential collisions computed for object SL-16 R/B.

Target Orbit TCA Probability of collision Miss distance Type
FENGYUN 1C DEB SSO 2025-05-22 20:38:12 0.00166494 91.0 (m) DEBRIS
FENGYUN 1C DEB SSO 2024-09-01 16:42:41 0.0002342903 134.0 (m) DEBRIS
CZ-6A DEB SSO 2024-07-01 20:03:05 0.004513605 37.0 (m) DEBRIS

Associated space launch

Second generation ELING satellite

SL-16 R/B was lifted into orbit during the mission ‘Zenit-2 | Tselina-2 18’, on board a Zenit-2 space rocket.

The launch took place on Sept. 4, 1996, 9:01 a.m. from 45/1.

For more information about the launch, click the button.

Launch to space Zenit-2 | Tselina-2 18
Zenit-2 | Tselina-2 18

Agency: N/A

Status: Launch Successful

Launch date: Sept. 4, 1996, 9:01 a.m. UTC

Rocket: Zenit-2

Launch pad: 45/1

Location: Baikonur Cosmodrome, Republic of Kazakhstan

...

Latest news about this satellite

There are no fresh news available about this satellite. Check back as we update our databases every day.


Newsletter sign-up

Weekly statistics, charts and insights to help you stay on top of the space industry.